Regional Weather Roundup
Issued by NWS

Home | Current Version | Previous Version | Graphics & Text | Print | Product List | Glossary On
Versions: 1 2 3 4 5 6 7 8 9 10 11 12 13 14 15 16 17 18 19 20 21 22 23 24 25 26 27 28 29 30 31 32 33 34 35 36 37 38 39 40 41 42 43 44 45 46 47 48 49 50
000
ASUS43 KDTX 220310
RWRMI
MICHIGAN HOURLY REGIONAL WEATHER ROUNDUP
NATIONAL WEATHER SERVICE DETROIT/PONTIAC MI
1000 PM EST SUN DEC 21 2014

NOTE: "FAIR" INDICATES FEW OR NO CLOUDS BELOW 12,000 FEET WITH NO
SIGNIFICANT WEATHER AND/OR OBSTRUCTION TO VISIBILITY.

MIZ047>049-052>055-059>063-066>070-074>076-081>083-220400-
SOUTHEAST LOWER MICHIGAN

CITY           SKY/WX    TMP DP  RH WIND       PRES   REMARKS
ADRIAN         PTCLDY    28  24  85 SE6       30.19F WCI  22
ALMA           PTCLDY    28  27  96 SE6       30.16F FOG     WCI  22
ANN ARBOR      CLOUDY    29  24  82 SE7       30.20F WCI  22
BAD AXE        CLOUDY    31  26  82 S9        30.21S WCI  23
CARO           CLOUDY    32  24  74 SE10      30.19S WCI  23
DETROIT CITY   PTCLDY    29  22  75 SE5       30.23F WCI  24
DETROIT        MOCLDY    29  23  78 E5        30.22F WCI  24
FLINT          CLOUDY    32  23  69 S7        30.19F WCI  26
GROSSE ILE     CLEAR     30  27  86 SE8       30.21S WCI  23
HILLSDALE      PTCLDY    29  26  89 SE8       30.14F WCI  21
HOWELL         CLOUDY    29  25  83 SE9       30.18S WCI  21

CITY           SKY/WX    TMP DP  RH WIND       PRES   REMARKS
JACKSON        PTCLDY    29  25  85 SE7       30.16F WCI  22
LAMBERTVILLE   CLEAR     28  25  86 CALM      30.20F FOG
LANSING        PTCLDY    30  25  81 SE10      30.17S WCI  21
LAPEER         CLOUDY    31  24  77 SE8       30.20S WCI  23
MASON          CLOUDY    29  25  83 SE7       30.16F WCI  22
MONROE         CLEAR     30  25  80 SE3       30.19F
MT. CLEMENS    PTCLDY    28  27  94 SE8       30.21S WCI  20
PONTIAC        CLOUDY    29  23  78 SE8       30.19F WCI  21
PORT HOPE        N/A     32  24  72 S5        30.19F WCI  27
PORT HURON     PTCLDY    23  21  93 CALM      30.24S FOG
TRI CITIES     CLOUDY    33  24  69 SE9       30.18F WCI  25
TROY           MOCLDY    32  24  73 CALM      30.23F
SAGINAW HB     CLOUDY    32  27  80 SE10      30.18S WCI  24
$$
MIZ043>046-050>051-056>058-064>065-071>073-077>080-220400-
SOUTHWEST LOWER MICHIGAN

CITY           SKY/WX    TMP DP  RH WIND       PRES   REMARKS
BATTLE CREEK   CLEAR     30  24  78 SE8       30.14F WCI  22
BENTON HARBOR  MOCLDY    30  26  85 SE9       30.10F WCI  22
BIG RAPIDS     CLOUDY    32  29  89 S7        30.11F WCI  25
COLDWATER      PTCLDY    29  25  85 MISG      30.14S FOG
FREMONT        CLOUDY    32  26  77 S7        30.12S WCI  26
HOLLAND        CLOUDY    33  26  75 SE12      30.12F WCI  24
GRAND RAPIDS   MOCLDY    29  24  82 SE10      30.14S HAZE    WCI  20
IONIA          FAIR      30  28  90 S9        30.14F FOG     WCI  22
KALAMAZOO      CLEAR     29  24  82 SE5       30.14F HAZE    WCI  24
LUDINGTON      CLOUDY    36  29  76 SE12G17   30.09S WCI  27
MARSHALL       PTCLDY    28  25  88 SE5       30.14F WCI  23
MOUNT PLEASANT PTCLDY    29  27  90 CALM      30.15F FOG
MUSKEGON       CLOUDY    33  25  72 S9        30.12S WCI  25
SOUTH HAVEN    CLOUDY    33  27  78 SE7       30.11F WCI  26
$$
MIZ016>042-220400-
NORTHERN LOWER MICHIGAN

CITY           SKY/WX    TMP DP  RH WIND       PRES   REMARKS
ALPENA         CLOUDY    31  25  78 S8        30.17F WCI  23
BEAVER ISLAND  CLOUDY    34  31  86 S10       30.08S WCI  26
BELLAIRE       CLOUDY    33  28  81 SE12G18   30.11S WCI  24
CADILLAC       CLOUDY    30  26  86 SE9       30.09S WCI  21
CHARLEVOIX     CLOUDY    32  28  85 SE9G17    30.12F WCI  24
FRANKFORT      CLOUDY    33  29  85 S9        30.08S WCI  25
GAYLORD        CLOUDY    29  26  89 S12       30.10S WCI  19
GRAYLING       CLOUDY    31  28  89 S12       30.13S WCI  21
HARBOR SPRINGS CLOUDY    32  27  82 SE5       30.11S WCI  27
HOUGHTON LAKE  CLOUDY    29  25  85 SE7       30.13S WCI  22
MANISTEE       CLOUDY    34  25  69 SE6       30.09F WCI  29
OSCODA         CLOUDY    32  27  83 S6        30.18F WCI  26
PELLSTON       CLOUDY    32  27  81 SE8       30.11S WCI  25
ROGERS CITY    CLOUDY    31  29  92 S10       30.16S WCI  22
TRAVERSE CITY  CLOUDY    34  27  75 VRB7      30.09S WCI  28
$$
MIZ007>008-015-220400-
EASTERN UPPER MICHIGAN

CITY           SKY/WX    TMP DP  RH WIND       PRES   REMARKS
KINROSS        CLOUDY    30  30 100 SE9       30.09F WCI  22
MACKINAC ISLAN CLOUDY    32  28  86 S12G20    30.10S WCI  23
NEWBERRY       CLOUDY    32  31  95 S10G16    30.04F WCI  24
S. S. MARIE    CLOUDY    32  29  88 SE12      30.08F WCI  23
MUNISING         N/A     37  32  82 S16G24    29.96F WCI  28
$$
MIZ004>006-011>014-085-220400-
CENTRAL UPPER MICHIGAN

CITY           SKY/WX    TMP DP  RH WIND       PRES   REMARKS
MANISTIQUE     LGT RAIN  34  33  98 S16       30.03S WCI  23
ESCANABA       CLOUDY    36  32  87 S13G21    29.98F WCI  27
MENOMINEE      CLOUDY    36  32  87 S10       29.98F WCI  28
SAWYER-GWINN   LGT SNOW  34  32  93 S17G23    29.91F WCI  23
$$
MIZ001>003-009>011-084-220400-
WESTERN UPPER MICHIGAN

CITY           SKY/WX    TMP DP  RH WIND       PRES   REMARKS
IRON MOUNTAIN  LGT SNOW  33  31  92 S15G22    29.90F FOG     WCI  23
HOUGHTON       SNOW      32  31  96 SE7       29.86S VSB 1/4 WCI  26
COPPER HARBOR    N/A     34  32  92 SW8G20    29.89S WCI  27
IRONWOOD       CLOUDY    34  32  93 S9        29.77S WCI  26
$$

ABBREVIATIONS USED IN REMARKS
   TC - TEMPERATURE IN CELSIUS
  WCI - WIND CHILL INDEX
   HX - HEAT INDEX
  VSB - VISIBILITY




USA.gov is the U.S. government's official web portal to all federal, state and local government web resources and services.